Regional Weather Roundup
Issued by NWS Wakefield, VA

Home | Current Version | Previous Version | Graphics & Text | Print | Product List | Glossary On
Versions: 1 2 3 4 5 6 7 8 9 10 11 12 13 14 15 16 17 18 19 20 21 22 23 24 25 26 27 28 29 30 31 32 33 34 35 36 37 38 39 40 41 42 43 44 45 46 47 48 49 50
000
ASUS41 KAKQ 261016
RWRAKQ

REGIONAL WEATHER ROUNDUP
NATIONAL WEATHER SERVICE WAKEFIELD VA
600 AM EDT TUE SEP 26 2017

Note: "fair" indicates few or no clouds below 12,000 feet with no
significant weather and/or obstructions to visibility. * = Denotes
station may not report precipitation (e.g., rain,snow,etc.),
thunder or fog.

VAZ042-051-052>054-056-261100-
NORTHERN VIRGINIA

CITY           SKY/WX    TMP DP  RH WIND       PRES   REMARKS
WASH NATIONAL  MOCLDY    70  67  90 NE7       29.99S
DULLES         PTCLDY    68  66  93 NW5       29.99S
FORT BELVOIR   CLEAR     63  61  96 CALM      29.98S
QUANTICO       PTCLDY    70  66  87 SE6       29.99R
FREDERICKSBRG* PTCLDY    67  67 100 CALM      29.97S
STAFFORD*      PTCLDY    62  62 100 CALM      30.02S
WARRENTON      FOG       58  56  91 CALM      29.99S VSB 1/4
CULPEPER*      PTCLDY    64  64 100 CALM      30.00S FOG
MANASSAS*      PTCLDY    64  62  93 CALM      30.00R
LEESBURG*      CLEAR     66  66 100 N5        30.01S
WINCHESTER     FOG       63  63 100 N3        30.02S VSB 1
FRONT ROYAL*   PTSUNNY   63  63 100 S3        30.02R VSB 3/4
LURAY*         FOG       63  63 100 CALM      30.02S VSB 3/4
$$

VAZ048-049-060>072-079>083-261100-
CENTRAL AND SOUTH CENTRAL VIRGINIA

CITY           SKY/WX    TMP DP  RH WIND       PRES   REMARKS
RICHMOND       CLOUDY    70  67  90 N8        29.95S
CHESTERFIELD*  NOT AVBL
PETERSBURG*    CLOUDY    69  67  93 N7        29.95S
HANOVER        CLOUDY    69  67  93 VRB3      29.97S
TAPPAHANNOCK*  CLOUDY    71  71 100 N3        29.97R
QUINTON*       CLOUDY    69  69 100 N6        29.94R
CHARLOTTSVILLE MOCLDY    68  65  90 CALM      29.99S
GORDONSVILLE*  MOSUNNY   66  65  98 CALM      29.99S
ORANGE*        PTCLDY    64  64 100 CALM      29.99S
LOUISA*        PTCLDY    64  63  94 N5        29.98S
BUMPASS*       FAIR      67  67 100 N6        29.97S
FARMVILLE*     MOCLDY    69  69 100 N5        29.96S
CREWE*         CLOUDY    68  68 100 N3        29.96R
FORT PICKETT*  CLOUDY    68  68 100 N7        29.95S
CHASE CITY*    CLOUDY    68  68 100 NE3       29.95R
CLARKSVILLE*   CLOUDY    68  68 100 NE3       29.94R
SOUTH HILL*    CLOUDY    68  68 100 N6        29.99S
LAWRENCEVILLE* CLOUDY    69  68  96 N5        29.92S
EMPORIA*       CLOUDY    70  68  94 N8        29.93R
$$

VAZ088>098-261100-
SOUTHEAST VIRGINIA

CITY           SKY/WX    TMP DP  RH WIND       PRES   REMARKS
NORFOLK        CLOUDY    73  72  96 NE18      29.88F FOG
VIRGINIA BEACH CLOUDY    71  70  96 NE15G24   29.88S FOG
NORFOLK NAVAL  CLOUDY    74  71  91 NE16G22   29.91S FOG
WEST POINT*    CLOUDY    72  68  88 NE3       29.96R
SALUDA*        CLOUDY    71  70  97 NE6       29.94R
NEWPORT NEWS   HVY RAIN  71  69  93 NE10G20   29.92R FOG
LANGLEY AFB    LGT RAIN  72  72 100 NE13      29.91R
FORT EUSTIS    CLOUDY    72  68  88 NE6       29.90R
WILLIAMSBURG*  CLOUDY    73  70  88 NE5       29.94R
HR EXEC AP*    CLOUDY    72  71  97 VRB6      29.90S FOG
FRANKLIN*      CLOUDY    70  69  96 N5        29.91R FOG
US460-WAKEFLD  CLOUDY    71  70  96 VRB3      29.92R
$$

VAZ020-022-025-037-045-261100-
WEST CENTRAL AND SOUTHWEST VIRGINIA

CITY           SKY/WX    TMP DP  RH WIND       PRES   REMARKS
STAUNTON*      MOCLDY    64  63  94 N3        30.04F
WAYNESBORO*    PTSUNNY   64  64 100 CALM      30.03F
HOT SPRINGS VA CLOUDY    64  63  94 E6        30.14S
LYNCHBURG      CLEAR     66  65  96 N5        29.99S
DANVILLE       PTCLDY    68  67  96 N7        29.96S
SOUTH BOSTON*  CLOUDY    67  65  95 CALM      29.95R
MARTINSVILLE   CLEAR     62  61  96 CALM      30.01S
ROANOKE        CLEAR     63  62  97 W3        30.03S
BLACKSBURG     MOCLDY    60  60 100 CALM      30.09R FOG
DUBLIN*        PTCLDY    62  62 100 CALM      30.07S
MARION*        MOCLDY    58  55  91 CALM      30.10S FOG
HILLSVILLE*    CLEAR     61  57  87 CALM      30.07S FOG
RICHLANDS*     FAIR      60  58  94 CALM      30.10R
WISE*          CLEAR     63  59  88 CALM      30.11R
ABINGDON*      CLEAR     61  60  97 CALM      30.07R
$$

MDZ021>025-VAZ099-100-261100-
SOUTHERN MARYLAND AND THE DELMARVA PENINSULA

CITY           SKY/WX    TMP DP  RH WIND       PRES   REMARKS
PATUXENT RIVER MOCLDY    69  67  93 NE9       29.96S
BAY BRIDGE APT PTCLDY    68  66  94 E6        29.99R
LEONARDTOWN    CLOUDY    68  64  88 NE5       29.98F
DOVER          CLOUDY    68  66  94 NE7       29.99R
GEORGETOWN     CLOUDY    69  67  93 NE9       29.98F
EASTON         CLOUDY    70  66  88 NE7       30.03R
CAMBRIDGE      FOG       70  66  88 NE6G12    29.97S VSB 1
SALISBURY      CLOUDY    68  68 100 NE9       29.97R
OCEAN CITY     CLOUDY    70  69  97 NE12      29.97S
WALLOPS ISLAND CLOUDY    70  70 100 NE14      29.95R
ACCOMACK*      LGT RAIN  70  69  96 NE7       29.93S
$$

NCZ012>017-030>032-261100-
NORTH CENTRAL AND EASTERN NORTH CAROLINA

CITY           SKY/WX    TMP DP  RH WIND       PRES   REMARKS
ROANOKE RAPIDS CLOUDY    70  68  94 N7        29.90S
RALEIGH        CLOUDY    69  68  96 N7        29.92S
ELIZABETH CITY CLOUDY    73  73 100 N16       29.84S FOG
AHOSKIE*       DRIZZLE   69  69 100 N10       29.89S
EDENTON*       CLOUDY    74  72  95 N3        29.85S FOG
CURRITUCK*     CLOUDY    72  72  99 NE12G23   29.86S FOG
KILL DEVIL HLS CLOUDY    71  71 100 NE13G22   29.79S FOG
MANTEO         CLOUDY    73  72  99 NE16G25   29.80S FOG
CAPE HATTERAS  CLOUDY    77  76  96 NE17G36   29.70S
TARBORO*       NOT AVBL
GOLDSBORO      CLOUDY    72  72 100 N8        29.85R
WASHINGTON     CLOUDY    72  71  96 N14       29.83S
GREENVILLE     CLOUDY    72  72 100 N9        29.88S FOG
NEW BERN       CLOUDY    74  73  97 N15G21    29.81S
WILMINGTON     CLOUDY    73  70  90 N13G21    29.81R
$$

VAZ048-261100-
ELSEWHERE

CITY           SKY/WX    TMP DP  RH WIND       PRES   REMARKS
HARRISBURG PA  MOCLDY    69  68  96 CALM      30.01S FOG
BALTIMORE      PTCLDY    67  65  93 NE5       29.98F
ANNAPOLIS      MOCLDY    72  70  93 NE3       29.99R
ANDREWS AFB    CLOUDY    66  66 100 E6        29.99R
PHILADELPHIA   MOCLDY    67  64  90 NE7       30.01S
HENDERSON NC   CLOUDY    66  64  93 N5        29.94R
GREENSBORO     CLEAR     67  66  97 N5        29.96S
ROCKY MOUNT    CLOUDY    71  70  96 N10       29.89R
$$

VAZ100-261100-
MARINE

STATION/POSITION TIME  TEMP    WIND        PRES    WAVE   SWELL
                       AIR SEA DIR/SP/G            HT/PER HT/PER
                 (UTC) (F)     (DEG/KT/KT) (MB)    (FT/S) (FT/S)
BRANDYWINE LGT   0942   69      70/ 12/ 14 1015.8R
CAPE MAY NJ      0948   69 74   70/  5/  9 1015.0R
LEWES DE         0942   70 74   70/ 13/ 15 1015.0S
15NM E FENWICK I 0950   69 71   30/ 16/ 17 1014.7F   5/16   3/16
OCEAN-CITY-INLET 0948   70 74   70/  9/ 15 1015.0F
WACHAPREAGUE VA  0948   71 74   20/ 12/ 18 1013.2F
THOMAS POINT MD  1000   70 77   60/ 12/ 13   N/A
GOOSES REEF MD   1000   71 76   50/ 12/ 14 1015.4    0
COVE POINT MD    0948   69      70/ 13/ 14 1015.5R
SOLOMONS ISLAND  0948   69 77   40/  7/ 10 1014.3S
BISHOPS HEAD MD  0948   69 76   40/ 12/ 16 1014.6S
PINEY POINT MD   0948           60/  5/  7   N/A
POTOMAC MD       1000   71 77   60/ 14/ 17 1013.5    1/ 2
CAMBRIDGE MD     0948   70 78              1015.8R
LEWISETTA VA     0948   71 78   60/  8/ 14 1014.3R
RAPPAHANNOCK LGT 0948           30/ 17/ 19 1013.9R
STINGRAY PT      0950   72      60/ 16/ 19 1013.9R
YORK RVR RNG VA  0948   72      40/ 21/ 25 1013.4R
YORKTOWN VA      0948   72 77   30/ 13/ 15 1012.7R
JAMESTOWN VA     1000      79   30/  8/ 12   N/A     0
DOMINION TERM VA 0948   72      40/  3/  8 1012.7R
KIPTOPEKE VA     0942      76   40/  9/ 13   N/A
CHES BAY BRIDGE  0948   72 75   40/ 20/ 24 1011.6F
CAPE HENRY VA    0948   72      40/ 23/ 26   N/A
WILLOUBY STN VA  0942   72      30/ 19/ 22 1012.5S
S CRANEY ISL VA  0948   72      40/ 16/ 20 1012.0F
CAPE HENRY BUOY  1000      74                N/A     7/14   3/14
1ST LANDING BUOY 1000   72 75              1012.2    4/ 4
64NM E OF VA BCH 0950   72 70   40/ 19/ 25 1010.0S  16/15  15/15
DUCK PIER NC     0948   73 76   30/ 28/ 31 1009.0F
44100 DUCK FRF   0905      74                N/A    10/14   7/14
44056 DUCK FRF   0930      76                N/A    10/13   7/13
OREGON INLET NC  0942   74 75   20/ 19/ 27 1007.6S
HATTERAS NC      0948   77 77   20/ 25/ 30 1005.6R
DIAMOND SHLS NC  0950   77 79   20/ 29/ 35 1002.8F  18/13  15/13
CAPE LOOKOUT NC  1000   76     360/ 25/ 32 1006.0F
$$



USA.gov is the U.S. government's official web portal to all federal, state and local government web resources and services.